This demonstration page uses our WeatherBlox Daily Observations layout. Learn more.

Left ArrowRight Arrow

34.16533, -84.80231

Hourly Observations for August 11, 2019

Temp ( °F °C ) Dew Point ( °F °C ) Humidity (%) Winds ( mph kmh ) Pressure ( in mb ) Visibility ( mi km ) Precip ( " mm )
12:53 am 00:53 Clear 75 23.9 72 22.2 90 90 Calm 29.91 1013 10 16 0.00 0.00
1:53 am 01:53 Clear 76 24.4 73 22.8 91 91 Calm 29.91 1013 10 16 0.00 0.00
2:53 am 02:53 Clear 74 23.3 72 22.2 94 94 SSE 3 6 29.90 1013 8 13 0.00 0.00
3:53 am 03:53 Clear 75 23.9 73 22.8 94 94 Calm 29.90 1013 7 11 0.00 0.00
4:53 am 04:53 Clear 74 23.3 72 22.2 94 94 Calm 29.91 1013 7 11 0.00 0.00
5:53 am 05:53 Clear with Mist and Fog 74 23.3 72 22.2 94 94 Calm 29.92 1013 5 8 0.00 0.00
6:12 am 06:12 Mostly Clear with Mist and Fog 74 23.3 72 22.2 94 94 Calm 29.93 1014 5 8 0.00 0.00
6:53 am 06:53 Clear with Mist and Fog 74 23.3 72 22.2 94 94 Calm 29.93 1014 6 10 0.00 0.00
7:53 am 07:53 Sunny with Mist and Fog 75 23.9 73 22.8 94 94 Calm 29.95 1014 5 8 0.00 0.00
8:53 am 08:53 Sunny 79 26.1 73 22.8 82 82 Calm 29.97 1015 9 14 0.00 0.00
9:53 am 09:53 Sunny 82 27.8 74 23.3 77 77 Calm 29.98 1015 10 16 0.00 0.00
10:53 am 10:53 Sunny 87 30.6 73 22.8 63 63 Calm 29.98 1015 10 16 0.00 0.00
11:53 am 11:53 Mostly Sunny 91 32.8 74 23.3 57 57 N 7 11 29.99 1016 10 16 0.00 0.00
12:53 pm 12:53 Partly Cloudy 91 32.8 72 22.2 54 54 NNE 6 9 29.97 1015 10 16 0.00 0.00
1:53 pm 13:53 Mostly Cloudy 93 33.9 73 22.8 52 52 Calm 29.95 1014 10 16 0.00 0.00
2:53 pm 14:53 Partly Cloudy 94 34.4 72 22.2 49 49 VRB 3 6 29.94 1014 10 16 0.00 0.00
3:53 pm 15:53 Partly Cloudy 95 35 71 21.7 46 46 VRB 3 6 29.92 1013 10 16 0.00 0.00
4:53 pm 16:53 Sunny 96 35.6 67 19.4 39 39 Calm 29.91 1013 10 16 0.00 0.00
5:53 pm 17:53 Mostly Cloudy 95 35 67 19.4 40 40 VRB 3 6 29.90 1013 10 16 0.00 0.00
6:53 pm 18:53 Sunny 93 33.9 65 18.3 40 40 VRB 3 6 29.91 1013 10 16 0.00 0.00
7:53 pm 19:53 Sunny 89 31.7 67 19.4 48 48 N 5 7 29.91 1013 10 16 0.00 0.00
8:53 pm 20:53 Clear 83 28.3 67 19.4 59 59 Calm 29.92 1013 10 16 0.00 0.00
9:53 pm 21:53 Clear 76 24.4 68 20 77 77 Calm 29.94 1014 10 16 0.00 0.00
10:53 pm 22:53 Mostly Cloudy 77 25 68 20 74 74 Calm 29.95 1014 10 16 0.00 0.00
11:53 pm 23:53 Clear 76 24.4 68 20 77 77 Calm 29.94 1014 10 16 0.00 0.00

Powered by AerisWeather